Regional Weather Roundup
Issued by NWS Goodland, KS

Home | Current Version | Previous Version | Graphics & Text | Print | Product List | Glossary On
Versions: 1 2 3 4 5 6 7 8 9 10 11 12 13 14 15 16 17 18 19 20 21 22 23 24 25 26 27 28 29 30 31 32 33 34 35 36 37 38 39 40 41 42 43 44 45 46 47 48 49 50
000
ASUS43 KGLD 251359
RWRGLD

GOODLAND FORECAST AREA HOURLY WEATHER ROUNDUP
NATIONAL WEATHER SERVICE GOODLAND KS
800 AM MDT SAT MAR 25 2017

...OFFICIAL OBSERVATIONS...

CITY           SKY/WX    TMP DP  RH WIND       PRES   REMARKS
GOODLAND KS    SUNNY     36  32  85 NW8       30.06R
HILL CITY KS   CLOUDY    39  37  92 N10       30.04R FOG
IMPERIAL NEB   CLOUDY    34  29  82 CALM      30.07R
MCCOOK NEB     SUNNY     37  33  85 NW7       30.05R
AKRON CO       SUNNY     37  30  75 S7        30.05F
BURLINGTON CO  SUNNY     34  31  88 W8        30.08R
LIMON CO       CLOUDY    29  27  92 N6        30.08F
$$

...UNOFFICIAL OBSERVATIONS...

CITY           SKY/WX    TMP DP  RH WIND       PRES   REMARKS
LENORA KS        N/A     36  32  85 CALM        N/A
NORTON KS      CLOUDY    36  32  87 N14       30.03R
SHARON SPRINGS   N/A     35  33  91 NW10        N/A
TRENTON NEB      N/A     34  32  92 N7          N/A
YUMA CO        FAIR      32  30  93 W7        30.06F
$$



USA.gov is the U.S. government's official web portal to all federal, state and local government web resources and services.